Time,TemperatureF,DewpointF,PressureIn,WindDirection,WindDirectionDegrees,WindSpeedMPH,WindSpeedGustMPH,Humidity,HourlyPrecipIn,Conditions,Clouds,dailyrainin,SolarRadiationWatts/m^2,SoftwareType,DateUTC
2013-01-11 00:02:00,17.0,14.0,-100.00,WNW,296,4.0,12.0,86,0.00,,,0.00,0.000000,,2013-01-11 07:02:00,
2013-01-11 00:12:00,17.0,14.0,-100.00,WNW,296,4.0,12.0,86,0.00,,,0.00,0.000000,,2013-01-11 07:12:00,
2013-01-11 00:22:00,17.0,14.0,-100.00,WNW,296,4.0,12.0,86,0.00,,,0.00,0.000000,,2013-01-11 07:22:00,
2013-01-11 00:32:00,17.0,14.0,-100.00,WNW,296,4.0,12.0,86,0.00,,,0.00,0.000000,,2013-01-11 07:32:00,
2013-01-11 01:02:00,17.0,14.0,-100.00,WNW,295,2.0,10.0,86,0.00,,,0.00,0.000000,,2013-01-11 08:02:00,
2013-01-11 01:12:00,17.0,14.0,-100.00,WNW,295,2.0,10.0,86,0.00,,,0.00,0.000000,,2013-01-11 08:12:00,
2013-01-11 01:22:00,17.0,14.0,-100.00,WNW,295,2.0,10.0,86,0.00,,,0.00,0.000000,,2013-01-11 08:22:00,
2013-01-11 01:32:00,17.0,14.0,-100.00,WNW,295,2.0,10.0,86,0.00,,,0.00,0.000000,,2013-01-11 08:32:00,
2013-01-11 02:02:00,16.0,13.0,-100.00,WNW,282,3.0,6.0,88,0.00,,,0.00,0.000000,,2013-01-11 09:02:00,
2013-01-11 02:12:00,16.0,13.0,-100.00,WNW,282,3.0,6.0,88,0.00,,,0.00,0.000000,,2013-01-11 09:12:00,
2013-01-11 02:22:00,16.0,13.0,-100.00,WNW,282,3.0,6.0,88,0.00,,,0.00,0.000000,,2013-01-11 09:22:00,
2013-01-11 02:32:00,16.0,13.0,-100.00,WNW,282,3.0,6.0,88,0.00,,,0.00,0.000000,,2013-01-11 09:32:00,
2013-01-11 03:02:00,16.0,13.0,-100.00,WNW,303,2.0,7.0,89,0.00,,,0.00,0.000000,,2013-01-11 10:02:00,
2013-01-11 03:12:00,16.0,13.0,-100.00,WNW,303,2.0,7.0,89,0.00,,,0.00,0.000000,,2013-01-11 10:12:00,
2013-01-11 03:22:00,16.0,13.0,-100.00,WNW,303,2.0,7.0,89,0.00,,,0.00,0.000000,,2013-01-11 10:22:00,
2013-01-11 03:32:00,16.0,13.0,-100.00,WNW,303,2.0,7.0,89,0.00,,,0.00,0.000000,,2013-01-11 10:32:00,
2013-01-11 03:52:00,16.0,13.0,-100.00,WNW,299,1.0,3.0,87,0.00,,,0.00,0.000000,,2013-01-11 10:52:00,
2013-01-11 04:02:00,16.0,13.0,-100.00,WNW,299,1.0,3.0,87,0.00,,,0.00,0.000000,,2013-01-11 11:02:00,
2013-01-11 04:12:00,16.0,13.0,-100.00,WNW,299,1.0,3.0,87,0.00,,,0.00,0.000000,,2013-01-11 11:12:00,
2013-01-11 04:22:00,16.0,13.0,-100.00,WNW,299,1.0,3.0,87,0.00,,,0.00,0.000000,,2013-01-11 11:22:00,
2013-01-11 04:32:00,16.0,13.0,-100.00,WNW,299,1.0,3.0,87,0.00,,,0.00,0.000000,,2013-01-11 11:32:00,
2013-01-11 04:53:00,15.0,12.0,-100.00,NW,317,2.0,5.0,87,0.00,,,0.00,0.000000,,2013-01-11 11:53:00,
2013-01-11 05:02:00,15.0,12.0,-100.00,NW,317,2.0,5.0,87,0.00,,,0.00,0.000000,,2013-01-11 12:02:00,
2013-01-11 05:12:00,15.0,12.0,-100.00,NW,317,2.0,5.0,87,0.00,,,0.00,0.000000,,2013-01-11 12:12:00,
2013-01-11 05:22:00,15.0,12.0,-100.00,NW,317,2.0,5.0,87,0.00,,,0.00,0.000000,,2013-01-11 12:22:00,
2013-01-11 05:32:00,15.0,12.0,-100.00,NW,317,2.0,5.0,87,0.00,,,0.00,0.000000,,2013-01-11 12:32:00,
2013-01-11 05:53:00,15.0,12.0,-100.00,NW,308,4.0,6.0,86,0.00,,,-99.99,0.000000,,2013-01-11 12:53:00,
2013-01-11 06:02:00,15.0,12.0,-100.00,NW,308,4.0,6.0,86,0.00,,,-99.99,0.000000,,2013-01-11 13:02:00,
2013-01-11 06:12:00,15.0,12.0,-100.00,NW,308,4.0,6.0,86,0.00,,,-99.99,0.000000,,2013-01-11 13:12:00,
2013-01-11 06:22:00,15.0,12.0,-100.00,NW,308,4.0,6.0,86,0.00,,,-99.99,0.000000,,2013-01-11 13:22:00,
2013-01-11 06:32:00,15.0,12.0,-100.00,NW,308,4.0,6.0,86,0.00,,,-99.99,0.000000,,2013-01-11 13:32:00,
2013-01-11 07:03:00,15.0,12.0,-100.00,NW,304,3.0,5.0,86,0.00,,,-99.99,0.000000,,2013-01-11 14:03:00,
2013-01-11 07:12:00,15.0,12.0,-100.00,NW,304,3.0,5.0,86,0.00,,,-99.99,0.000000,,2013-01-11 14:12:00,
2013-01-11 07:22:00,15.0,12.0,-100.00,NW,304,3.0,5.0,86,0.00,,,-99.99,0.000000,,2013-01-11 14:22:00,
2013-01-11 07:33:00,15.0,12.0,-100.00,NW,304,3.0,5.0,86,0.00,,,-99.99,0.000000,,2013-01-11 14:33:00,
2013-01-11 08:03:00,14.0,11.0,-100.00,NW,309,3.0,5.0,86,0.00,,,0.00,0.000000,,2013-01-11 15:03:00,
2013-01-11 08:12:00,14.0,11.0,-100.00,NW,309,3.0,5.0,86,0.00,,,0.00,0.000000,,2013-01-11 15:12:00,
2013-01-11 08:22:00,14.0,11.0,-100.00,NW,309,3.0,5.0,86,0.00,,,0.00,0.000000,,2013-01-11 15:22:00,
2013-01-11 08:32:00,14.0,11.0,-100.00,NW,309,3.0,5.0,86,0.00,,,0.00,0.000000,,2013-01-11 15:32:00,
2013-01-11 08:53:00,14.0,11.0,-100.00,NNW,330,2.0,5.0,87,0.00,,,0.00,1.000000,,2013-01-11 15:53:00,
2013-01-11 09:02:00,14.0,11.0,-100.00,NNW,330,2.0,5.0,87,0.00,,,0.00,1.000000,,2013-01-11 16:02:00,
2013-01-11 09:12:00,14.0,11.0,-100.00,NNW,330,2.0,5.0,87,0.00,,,0.00,1.000000,,2013-01-11 16:12:00,
2013-01-11 09:22:00,14.0,11.0,-100.00,NNW,330,2.0,5.0,87,0.00,,,0.00,1.000000,,2013-01-11 16:22:00,
2013-01-11 09:32:00,14.0,11.0,-100.00,NNW,330,2.0,5.0,87,0.00,,,0.00,1.000000,,2013-01-11 16:32:00,
2013-01-11 10:03:00,16.0,12.0,-100.00,WNW,297,4.0,6.0,85,0.00,,,0.00,26.000000,,2013-01-11 17:03:00,
2013-01-11 10:12:00,16.0,12.0,-100.00,WNW,297,4.0,6.0,85,0.00,,,0.00,26.000000,,2013-01-11 17:12:00,
2013-01-11 10:22:00,16.0,12.0,-100.00,WNW,297,4.0,6.0,85,0.00,,,0.00,26.000000,,2013-01-11 17:22:00,
2013-01-11 10:33:00,16.0,12.0,-100.00,WNW,297,4.0,6.0,85,0.00,,,0.00,26.000000,,2013-01-11 17:33:00,
2013-01-11 11:03:00,16.0,12.0,-100.00,NW,306,6.0,11.0,84,0.00,,,0.00,59.000000,,2013-01-11 18:03:00,
2013-01-11 11:12:00,16.0,12.0,-100.00,NW,306,6.0,11.0,84,0.00,,,0.00,59.000000,,2013-01-11 18:12:00,
2013-01-11 11:23:00,16.0,12.0,-100.00,NW,306,6.0,11.0,84,0.00,,,0.00,59.000000,,2013-01-11 18:23:00,
2013-01-11 11:32:00,16.0,12.0,-100.00,NW,306,6.0,11.0,84,0.00,,,0.00,59.000000,,2013-01-11 18:32:00,
2013-01-11 12:02:00,16.0,11.0,-100.00,WNW,299,6.0,13.0,80,0.00,,,0.00,84.000000,,2013-01-11 19:02:00,
2013-01-11 12:12:00,16.0,11.0,-100.00,WNW,299,6.0,13.0,80,0.00,,,0.00,84.000000,,2013-01-11 19:12:00,
2013-01-11 12:22:00,16.0,11.0,-100.00,WNW,299,6.0,13.0,80,0.00,,,0.00,84.000000,,2013-01-11 19:22:00,
2013-01-11 12:32:00,16.0,11.0,-100.00,WNW,299,6.0,13.0,80,0.00,,,0.00,84.000000,,2013-01-11 19:32:00,
2013-01-11 12:53:00,16.0,10.0,-100.00,NW,305,7.0,16.0,78,0.00,,,0.00,98.000000,,2013-01-11 19:53:00,
2013-01-11 13:02:00,16.0,10.0,-100.00,NW,305,7.0,16.0,78,0.00,,,0.00,98.000000,,2013-01-11 20:02:00,
2013-01-11 13:12:00,16.0,10.0,-100.00,NW,305,7.0,16.0,78,0.00,,,0.00,98.000000,,2013-01-11 20:12:00,
2013-01-11 13:22:00,16.0,10.0,-100.00,NW,305,7.0,16.0,78,0.00,,,0.00,98.000000,,2013-01-11 20:22:00,
2013-01-11 13:32:00,16.0,10.0,-100.00,NW,305,7.0,16.0,78,0.00,,,0.00,98.000000,,2013-01-11 20:32:00,
2013-01-11 14:03:00,18.0,12.0,-100.00,WNW,288,6.0,15.0,76,0.00,,,0.00,133.000000,,2013-01-11 21:03:00,
2013-01-11 14:12:00,18.0,12.0,-100.00,WNW,288,6.0,15.0,76,0.00,,,0.00,133.000000,,2013-01-11 21:12:00,
2013-01-11 14:22:00,18.0,12.0,-100.00,WNW,288,6.0,15.0,76,0.00,,,0.00,133.000000,,2013-01-11 21:22:00,
2013-01-11 14:32:00,18.0,12.0,-100.00,WNW,288,6.0,15.0,76,0.00,,,0.00,133.000000,,2013-01-11 21:32:00,
2013-01-11 15:02:00,19.0,11.0,-100.00,WNW,300,7.0,15.0,71,0.00,,,0.00,266.000000,,2013-01-11 22:02:00,
2013-01-11 15:12:00,19.0,11.0,-100.00,WNW,300,7.0,15.0,71,0.00,,,0.00,266.000000,,2013-01-11 22:12:00,
2013-01-11 15:22:00,19.0,11.0,-100.00,WNW,300,7.0,15.0,71,0.00,,,0.00,266.000000,,2013-01-11 22:22:00,
2013-01-11 15:32:00,19.0,11.0,-100.00,WNW,300,7.0,15.0,71,0.00,,,0.00,266.000000,,2013-01-11 22:32:00,
2013-01-11 15:53:00,16.0,10.0,-100.00,NW,307,6.0,15.0,76,0.00,,,0.00,227.000000,,2013-01-11 22:53:00,
2013-01-11 16:02:00,16.0,10.0,-100.00,NW,307,6.0,15.0,76,0.00,,,0.00,227.000000,,2013-01-11 23:02:00,
2013-01-11 16:12:00,16.0,10.0,-100.00,NW,307,6.0,15.0,76,0.00,,,0.00,227.000000,,2013-01-11 23:12:00,
2013-01-11 16:22:00,16.0,10.0,-100.00,NW,307,6.0,15.0,76,0.00,,,0.00,227.000000,,2013-01-11 23:22:00,
2013-01-11 16:32:00,16.0,10.0,-100.00,NW,307,6.0,15.0,76,0.00,,,0.00,227.000000,,2013-01-11 23:32:00,
2013-01-11 17:02:00,15.0,8.0,-100.00,NE,36,4.0,11.0,73,0.00,,,0.00,66.000000,,2013-01-12 00:02:00,
2013-01-11 17:12:00,15.0,8.0,-100.00,NE,36,4.0,11.0,73,0.00,,,0.00,66.000000,,2013-01-12 00:12:00,
2013-01-11 17:22:00,15.0,8.0,-100.00,NE,36,4.0,11.0,73,0.00,,,0.00,66.000000,,2013-01-12 00:22:00,
2013-01-11 17:32:00,15.0,8.0,-100.00,NE,36,4.0,11.0,73,0.00,,,0.00,66.000000,,2013-01-12 00:32:00,
2013-01-11 17:53:00,13.0,7.0,-100.00,SSW,195,1.0,7.0,77,0.00,,,0.00,10.000000,,2013-01-12 00:53:00,
2013-01-11 18:02:00,13.0,7.0,-100.00,SSW,195,1.0,7.0,77,0.00,,,0.00,10.000000,,2013-01-12 01:02:00,
2013-01-11 18:12:00,13.0,7.0,-100.00,SSW,195,1.0,7.0,77,0.00,,,0.00,10.000000,,2013-01-12 01:12:00,
2013-01-11 18:22:00,13.0,7.0,-100.00,SSW,195,1.0,7.0,77,0.00,,,0.00,10.000000,,2013-01-12 01:22:00,
2013-01-11 18:32:00,13.0,7.0,-100.00,SSW,195,1.0,7.0,77,0.00,,,0.00,10.000000,,2013-01-12 01:32:00,
2013-01-11 19:02:00,13.0,8.0,-100.00,WNW,282,3.0,8.0,80,0.00,,,0.00,0.000000,,2013-01-12 02:02:00,
2013-01-11 19:12:00,13.0,8.0,-100.00,WNW,282,3.0,8.0,80,0.00,,,0.00,0.000000,,2013-01-12 02:12:00,
2013-01-11 19:22:00,13.0,8.0,-100.00,WNW,282,3.0,8.0,80,0.00,,,0.00,0.000000,,2013-01-12 02:22:00,
2013-01-11 19:32:00,13.0,8.0,-100.00,WNW,282,3.0,8.0,80,0.00,,,0.00,0.000000,,2013-01-12 02:32:00,
2013-01-11 19:53:00,12.0,7.0,-100.00,NW,309,3.0,8.0,80,0.00,,,0.00,0.000000,,2013-01-12 02:53:00,
2013-01-11 20:02:00,12.0,7.0,-100.00,NW,309,3.0,8.0,80,0.00,,,0.00,0.000000,,2013-01-12 03:02:00,
2013-01-11 20:12:00,12.0,7.0,-100.00,NW,309,3.0,8.0,80,0.00,,,0.00,0.000000,,2013-01-12 03:12:00,
2013-01-11 20:22:00,12.0,7.0,-100.00,NW,309,3.0,8.0,80,0.00,,,0.00,0.000000,,2013-01-12 03:22:00,
2013-01-11 20:32:00,12.0,7.0,-100.00,NW,309,3.0,8.0,80,0.00,,,0.00,0.000000,,2013-01-12 03:32:00,
2013-01-11 20:53:00,10.0,5.0,-100.00,NW,315,4.0,6.0,81,0.00,,,0.00,0.000000,,2013-01-12 03:53:00,
2013-01-11 21:02:00,10.0,5.0,-100.00,NW,315,4.0,6.0,81,0.00,,,0.00,0.000000,,2013-01-12 04:02:00,
2013-01-11 21:12:00,10.0,5.0,-100.00,NW,315,4.0,6.0,81,0.00,,,0.00,0.000000,,2013-01-12 04:12:00,
2013-01-11 21:22:00,10.0,5.0,-100.00,NW,315,4.0,6.0,81,0.00,,,0.00,0.000000,,2013-01-12 04:22:00,
2013-01-11 21:32:00,10.0,5.0,-100.00,NW,315,4.0,6.0,81,0.00,,,0.00,0.000000,,2013-01-12 04:32:00,
2013-01-11 22:03:00,10.0,5.0,-100.00,NW,315,3.0,7.0,80,0.00,,,0.00,0.000000,,2013-01-12 05:03:00,
2013-01-11 22:12:00,10.0,5.0,-100.00,NW,315,3.0,7.0,80,0.00,,,0.00,0.000000,,2013-01-12 05:12:00,
2013-01-11 22:22:00,10.0,5.0,-100.00,NW,315,3.0,7.0,80,0.00,,,0.00,0.000000,,2013-01-12 05:22:00,
2013-01-11 22:32:00,10.0,5.0,-100.00,NW,315,3.0,7.0,80,0.00,,,0.00,0.000000,,2013-01-12 05:32:00,
2013-01-11 23:02:00,8.0,3.0,-100.00,WNW,303,3.0,8.0,80,0.00,,,0.00,0.000000,,2013-01-12 06:02:00,
2013-01-11 23:12:00,8.0,3.0,-100.00,WNW,303,3.0,8.0,80,0.00,,,0.00,0.000000,,2013-01-12 06:12:00,
2013-01-11 23:22:00,8.0,3.0,-100.00,WNW,303,3.0,8.0,80,0.00,,,0.00,0.000000,,2013-01-12 06:22:00,
2013-01-11 23:32:00,8.0,3.0,-100.00,WNW,303,3.0,8.0,80,0.00,,,0.00,0.000000,,2013-01-12 06:32:00,